FLOCK 4A-11 (44096 NORAD) Tracking and Keplerian Element Data

This shows tracking and keplerian element data for the satellite.

Feedback or suggestion? Click here.




ElementValue
Catalog44096
NameFLOCK 4A-11
Epoch Orbit309
Epoch Day111.72008176
Epoch Year2019
RAAN172.1163
Inclination97.4627
Eccentricity0.001062
Argument of Perigee213.9266
Mean Anonmoly146.1292
Mean Motion15.21952668
Decay Rate6.97E-06
L11 44096U 19018U 19111.72008176 .00000697 00000-0 33635-4 0 9992
L22 44096 97.4627 172.1163 0010620 213.9266 146.1292 15.21952668 3091

Live tracking and technical data element details for FLOCK 4A-11 (NORAD 44096). FLOCK 4A-11 can be tracked NOW for your location showing map with azimuth and elevation plus other details from your city location.

Track the satellite on the map from your city or location and see movement details for azimuth, elevation, latitude, longitude, range, height, and movement on the map or in text.







IsCatalogInMostPopularTable: catalog: 44096, numindb: 11
Update: records affected: 1



GetName: 44096 FLOCK 4A-11

Hit Count: updated at: Tue, 23 Apr 2019 01:52:32 GMT